Fullerton, CA

1:27 AM PST on January 21, 2018 (GMT -0800)
Fullerton Municipal

Weather History for KFUL - November, 2012

Change the Weather History Date:

Saturday, November 3, 2012

  Actual Average Record
Temperature  
Mean Temperature 69 °F 64 °F  
Max Temperature 84 °F 76 °F 99 °F (2010)
Min Temperature 54 °F 53 °F 46 °F (2002)
Degree Days  
Heating Degree Days 0 2  
Month to date heating degree days 0 6  
Since 1 July heating degree days 16 30  
Cooling Degree Days 4 1  
Month to date cooling degree days 5 5  
Year to date cooling degree days 1994 1236  
Growing Degree Days 18 (Base 50)    
Moisture  
Dew Point 52 °F    
Average Humidity 56    
Maximum Humidity 83    
Minimum Humidity 28    
Precipitation  
Precipitation 0.00 in 0.05 in 0.05 in (2003)
Month to date precipitation 0.00 0.17  
Year to date precipitation 3.69 10.90  
Since 1 July precipitation 0.16  
Snow  
Snow 0.00 in - - ()
Month to date snowfall 0.0  
Year to date snowfall 0.0  
Snow Depth 0.00 in    
Sea Level Pressure  
Sea Level Pressure 30.00 in    
Wind  
Wind Speed 1 mph (West)    
Max Wind Speed 7 mph    
Max Gust Speed 15 mph    
Visibility 6 miles    
Events      
T = Trace of Precipitation, MM = Missing Value Source: NWS Daily Summary

Daily Weather History Graph

Daily Weather History Graph

Search for Another Location

Airport or City:

Trip Planner

Search our weather history database for the weather conditions in past years. The results will help you decide how hot, cold, wet, or windy it might be!

Date:

Astronomy

Nov. 03, 2012 Rise Set
Actual Time 7:13 AM PDT 5:56 PM PDT
Civil Twilight 6:47 AM PDT 6:22 PM PDT
Nautical Twilight 6:17 AM PDT 6:52 PM PDT
Astronomical Twilight 5:48 AM PDT 7:21 PM PDT
Moon 9:46 PM PDT (11/3) 11:16 AM PDT (11/3)
Length of Visible Light 11h 35m
Length of Day
10h 43m
Waning Gibbous, 79% of the Moon is Illuminated
Nov 3
Waning Gibbous
Nov 6
Last Quarter
Nov 13
New
Nov 20
First Quarter
Nov 28
Full

Hourly Weather History & Observations

Time (PDT) Temp. Heat Index Dew Point Humidity Pressure Visibility Wind Dir Wind Speed Gust Speed Precip Events Conditions
12:53 AM 57.9 °F - 52.0 °F 81% 29.98 in 9.0 mi Calm Calm - N/A   Clear
1:53 AM 57.9 °F - 51.1 °F 78% 29.98 in 10.0 mi Calm Calm - N/A   Clear
2:53 AM 57.0 °F - 50.0 °F 77% 29.98 in 8.0 mi Calm Calm - N/A   Clear
3:53 AM 55.9 °F - 50.0 °F 80% 29.98 in 7.0 mi Calm Calm - N/A   Clear
4:53 AM 55.0 °F - 48.9 °F 80% 29.98 in 6.0 mi Calm Calm - N/A   Haze
5:53 AM 54.0 °F - 48.9 °F 83% 30.00 in 6.0 mi Calm Calm - N/A   Haze
6:53 AM 55.0 °F - 48.9 °F 80% 30.01 in 5.0 mi Calm Calm - N/A   Haze
7:53 AM 55.9 °F - 50.0 °F 80% 30.02 in 3.0 mi Calm Calm - N/A   Haze
8:53 AM 60.1 °F - 52.0 °F 75% 30.04 in 4.0 mi Calm Calm - N/A   Haze
9:53 AM 66.0 °F - 54.0 °F 65% 30.03 in 4.0 mi Calm Calm - N/A   Haze
10:53 AM 70.0 °F - 53.1 °F 55% 30.04 in 4.0 mi Variable 3.5 mph - N/A   Haze
11:53 AM 73.9 °F - 53.1 °F 48% 30.03 in 4.0 mi Variable 3.5 mph - N/A   Haze
12:53 PM 77.0 °F - 53.1 °F 43% 30.00 in 4.0 mi Calm Calm - N/A   Haze
1:53 PM 81.0 °F - 51.1 °F 35% 29.98 in 5.0 mi Variable 4.6 mph - N/A   Haze
2:53 PM 82.9 °F - 46.9 °F 28% 29.96 in 6.0 mi Calm Calm - N/A   Haze
3:53 PM 82.9 °F 82.0 °F 55.0 °F 38% 29.95 in 6.0 mi WSW 4.6 mph - N/A   Haze
4:53 PM 81.0 °F 80.5 °F 54.0 °F 39% 29.96 in 9.0 mi WNW 3.5 mph - N/A   Clear
5:53 PM 75.0 °F - 55.0 °F 50% 29.97 in 10.0 mi WNW 6.9 mph - N/A   Clear
6:53 PM 71.1 °F - 55.0 °F 57% 29.98 in 8.0 mi West 4.6 mph - N/A   Clear
7:53 PM 68.0 °F - 55.9 °F 65% 29.99 in 8.0 mi Calm Calm - N/A   Clear
8:53 PM 66.0 °F - 55.9 °F 70% 30.00 in 7.0 mi Calm Calm - N/A   Clear
9:53 PM 64.0 °F - 55.0 °F 73% 30.02 in 7.0 mi Calm Calm - N/A   Clear
10:53 PM 62.1 °F - 54.0 °F 75% 30.03 in 7.0 mi Calm Calm - N/A   Clear
11:53 PM 61.0 °F - 52.0 °F 72% 30.03 in 8.0 mi Calm Calm - N/A   Clear